Hourly Data Report for May 12, 2012

All times are specified in Local Standard Time (LST). Add 1 hour to adjust for Daylight Saving Time where and when it is observed.

YARMOUTH A
NOVA SCOTIA

43°49'37.000" N
66°05'17.000" W
42.90 m
8206495
71603
YQI

Download Data

Hourly Data (May 2012)
Hourly Data Report for May 12, 2012
Temp Definition
°C
Dew Point Temp Definition
°C
Rel Hum Definition
%
Wind Dir Definition
10's deg

Wind Spd Definition
km/h
Visibility Definition
km
Stn Press Definition
kPa
Hmdx Definition


Wind Chill Definition


Weather Definition


TIME
00:00 Legend Double Dagger 8.6 6.4 86 31 21 10.0 100.99     Rain Showers
01:00 Legend Double Dagger 8.0 5.1 82 32 22 10.0 101.01     LegendNANA
02:00 Legend Double Dagger 6.9 4.7 86 32 15 10.0 101.03     Mainly Clear
03:00 Legend Double Dagger 6.2 4.4 88 30 10 10.0 101.05     LegendNANA
04:00 Legend Double Dagger 5.5 4.2 91 27 10 10.0 101.03     LegendNANA
05:00 Legend Double Dagger 5.7 4.7 93 21 6 10.0 101.09     Cloudy
06:00 Legend Double Dagger 7.3 5.0 85 24 8 10.0 101.16     LegendNANA
07:00 Legend Double Dagger 9.8 5.0 72 22 14 10.0 101.23     LegendNANA
08:00 Legend Double Dagger 10.3 4.7 68 22 16 10.0 101.28     Mainly Clear
09:00 Legend Double Dagger 12.2 4.7 60 22 24 10.0 101.25     LegendNANA
10:00 Legend Double Dagger 12.7 5.2 60 22 31 10.0 101.21     LegendNANA
11:00 Legend Double Dagger 12.2 6.7 69 22 28 10.0 101.20     Mainly Clear
12:00 Legend Double Dagger 11.7 7.3 74 23 37 10.0 101.18     LegendNANA
13:00 Legend Double Dagger 12.5 8.0 74 23 30 10.0 101.21     LegendNANA
14:00 Legend Double Dagger 12.7 7.2 69 23 29 10.0 101.18     Mainly Clear
15:00 Legend Double Dagger 13.1 6.7 65 24 25 10.0 101.19     LegendNANA
16:00 Legend Double Dagger 12.4 6.7 68 23 23 10.0 101.16     LegendNANA
17:00 Legend Double Dagger 12.5 6.2 65 24 20 10.0 101.22     Mainly Clear
18:00 Legend Double Dagger 11.2 6.4 72 27 13 10.0 101.32     LegendNANA
19:00 Legend Double Dagger 10.0 5.8 75 29 13 10.0 101.40     LegendNANA
20:00 Legend Double Dagger 7.8 5.3 84 30 8 10.0 101.46     Mainly Clear
21:00 Legend Double Dagger 7.4 5.4 87 32 5 10.0 101.55     LegendNANA
22:00 Legend Double Dagger 6.2 4.4 88   0 10.0 101.61     LegendNANA
23:00 Legend Double Dagger 6.9 3.7 80   0 10.0 101.61     Clear

Notes on Data Quality.

Legend

  • E = Estimated
  • M = Missing
  • NA = Not Available
  • ‡ = Partner data that is not subject to review by the National Climate Archives
Date modified: